Year,Month,Day,Hour,Minute,Value (Times are PST for temperature in C)
2013,01,30,00,00,8.70
2013,01,30,00,01,8.70
2013,01,30,00,02,8.70
2013,01,30,00,03,8.70
2013,01,30,00,04,8.70
2013,01,30,00,05,8.70
2013,01,30,00,06,8.70
2013,01,30,00,07,8.70
2013,01,30,00,08,8.70
2013,01,30,00,09,8.70
2013,01,30,00,10,8.70
2013,01,30,00,11,8.70
2013,01,30,00,12,8.70
2013,01,30,00,13,8.70
2013,01,30,00,14,8.60
2013,01,30,00,15,8.60
2013,01,30,00,16,8.60
2013,01,30,00,17,8.60
2013,01,30,00,18,8.60
2013,01,30,00,19,8.60
2013,01,30,00,20,8.60
2013,01,30,00,21,8.60
2013,01,30,00,22,8.60
2013,01,30,00,23,8.60
2013,01,30,00,24,8.60
2013,01,30,00,25,8.60
2013,01,30,00,26,8.60
2013,01,30,00,27,8.60
2013,01,30,00,28,8.60
2013,01,30,00,29,8.60
2013,01,30,00,30,8.60
2013,01,30,00,31,8.60
2013,01,30,00,32,8.60
2013,01,30,00,33,8.60
2013,01,30,00,34,8.60
2013,01,30,00,35,8.60
2013,01,30,00,36,8.60
2013,01,30,00,37,8.60
2013,01,30,00,38,8.50
2013,01,30,00,39,8.50
2013,01,30,00,40,8.50
2013,01,30,00,41,8.50
2013,01,30,00,42,8.50
2013,01,30,00,43,8.50
2013,01,30,00,44,8.50
2013,01,30,00,45,8.50
2013,01,30,00,46,8.50
2013,01,30,00,47,8.50
2013,01,30,00,48,8.50
2013,01,30,00,49,8.50
2013,01,30,00,50,8.50
2013,01,30,00,51,8.50
2013,01,30,00,52,8.50
2013,01,30,00,53,8.40
2013,01,30,00,54,8.40
2013,01,30,00,55,8.40
2013,01,30,00,56,8.40
2013,01,30,00,57,8.40
2013,01,30,00,58,8.40
2013,01,30,00,59,8.30
2013,01,30,01,00,8.30
2013,01,30,01,01,8.30
2013,01,30,01,02,8.30
2013,01,30,01,03,8.30
2013,01,30,01,04,8.30
2013,01,30,01,05,8.20
2013,01,30,01,06,8.20
2013,01,30,01,07,8.20
2013,01,30,01,08,8.20
2013,01,30,01,09,8.20
2013,01,30,01,10,8.20
2013,01,30,01,11,8.20
2013,01,30,01,12,8.20
2013,01,30,01,13,8.20
2013,01,30,01,14,8.10
2013,01,30,01,15,8.10
2013,01,30,01,16,8.10
2013,01,30,01,17,8.10
2013,01,30,01,18,8.10
2013,01,30,01,19,8.10
2013,01,30,01,20,8.10
2013,01,30,01,21,8.10
2013,01,30,01,22,8.00
2013,01,30,01,23,8.00
2013,01,30,01,24,8.00
2013,01,30,01,25,8.00
2013,01,30,01,26,7.90
2013,01,30,01,27,7.90
2013,01,30,01,28,7.90
2013,01,30,01,29,7.90
2013,01,30,01,30,7.80
2013,01,30,01,31,7.80
2013,01,30,01,32,7.80
2013,01,30,01,33,7.80
2013,01,30,01,34,7.80
2013,01,30,01,35,7.80
2013,01,30,01,36,7.80
2013,01,30,01,37,7.70
2013,01,30,01,38,7.70
2013,01,30,01,39,7.70
2013,01,30,01,40,7.70
2013,01,30,01,41,7.70
2013,01,30,01,42,7.70
2013,01,30,01,43,7.70
2013,01,30,01,44,7.70
2013,01,30,01,45,7.70
2013,01,30,01,46,7.70
2013,01,30,01,47,7.70
2013,01,30,01,48,7.70
2013,01,30,01,49,7.70
2013,01,30,01,50,7.70
2013,01,30,01,51,7.70
2013,01,30,01,52,7.70
2013,01,30,01,53,7.70
2013,01,30,01,54,7.70
2013,01,30,01,55,7.70
2013,01,30,01,56,7.70
2013,01,30,01,57,7.70
2013,01,30,01,58,7.70
2013,01,30,01,59,7.70
2013,01,30,02,00,7.70
2013,01,30,02,01,7.70
2013,01,30,02,02,7.70
2013,01,30,02,03,7.70
2013,01,30,02,04,7.70
2013,01,30,02,05,7.70
2013,01,30,02,06,7.80
2013,01,30,02,07,7.80
2013,01,30,02,08,7.80
2013,01,30,02,09,7.80
2013,01,30,02,10,7.80
2013,01,30,02,11,7.80
2013,01,30,02,12,7.80
2013,01,30,02,13,7.80
2013,01,30,02,14,7.80
2013,01,30,02,15,7.80
2013,01,30,02,16,7.80
2013,01,30,02,17,7.80
2013,01,30,02,18,7.80
2013,01,30,02,19,7.90
2013,01,30,02,20,7.90
2013,01,30,02,21,7.90
2013,01,30,02,22,7.90
2013,01,30,02,23,7.90
2013,01,30,02,24,7.90
2013,01,30,02,25,8.00
2013,01,30,02,26,8.00
2013,01,30,02,27,8.00
2013,01,30,02,28,8.00
2013,01,30,02,29,8.10
2013,01,30,02,30,8.10
2013,01,30,02,31,8.10
2013,01,30,02,32,8.10
2013,01,30,02,33,8.10
2013,01,30,02,34,8.10
2013,01,30,02,35,8.20
2013,01,30,02,36,8.20
2013,01,30,02,37,8.20
2013,01,30,02,38,8.20
2013,01,30,02,39,8.20
2013,01,30,02,40,8.20
2013,01,30,02,41,8.20
2013,01,30,02,42,8.20
2013,01,30,02,43,8.20
2013,01,30,02,44,8.20
2013,01,30,02,45,8.20
2013,01,30,02,46,8.20
2013,01,30,02,47,8.20
2013,01,30,02,48,8.20
2013,01,30,02,49,8.20
2013,01,30,02,50,8.30
2013,01,30,02,51,8.30
2013,01,30,02,52,8.30
2013,01,30,02,53,8.30
2013,01,30,02,54,8.30
2013,01,30,02,55,8.30
2013,01,30,02,56,8.30
2013,01,30,02,57,8.30
2013,01,30,02,58,8.30
2013,01,30,02,59,8.30
2013,01,30,03,00,8.30
2013,01,30,03,01,8.30
2013,01,30,03,02,8.30
2013,01,30,03,03,8.30
2013,01,30,03,04,8.30
2013,01,30,03,05,8.30
2013,01,30,03,06,8.30
2013,01,30,03,07,8.20
2013,01,30,03,08,8.20
2013,01,30,03,09,8.20
2013,01,30,03,10,8.20
2013,01,30,03,11,8.20
2013,01,30,03,12,8.20
2013,01,30,03,13,8.20
2013,01,30,03,14,8.10
2013,01,30,03,15,8.10
2013,01,30,03,16,8.10
2013,01,30,03,17,8.10
2013,01,30,03,18,8.10
2013,01,30,03,19,8.10
2013,01,30,03,20,8.10
2013,01,30,03,21,8.00
2013,01,30,03,22,8.00
2013,01,30,03,23,8.00
2013,01,30,03,24,8.00
2013,01,30,03,25,8.00
2013,01,30,03,26,8.00
2013,01,30,03,27,8.00
2013,01,30,03,28,7.90
2013,01,30,03,29,7.90
2013,01,30,03,30,7.90
2013,01,30,03,31,7.90
2013,01,30,03,32,7.90
2013,01,30,03,33,7.90
2013,01,30,03,34,7.90
2013,01,30,03,35,7.90
2013,01,30,03,36,7.90
2013,01,30,03,37,7.90
2013,01,30,03,38,7.90
2013,01,30,03,39,7.90
2013,01,30,03,40,7.80
2013,01,30,03,41,7.80
2013,01,30,03,42,7.80
2013,01,30,03,43,7.80
2013,01,30,03,44,7.80
2013,01,30,03,45,7.80
2013,01,30,03,46,7.80
2013,01,30,03,47,7.80
2013,01,30,03,48,7.80
2013,01,30,03,49,7.80
2013,01,30,03,50,7.80
2013,01,30,03,51,7.80
2013,01,30,03,52,7.80
2013,01,30,03,53,7.80
2013,01,30,03,54,7.80
2013,01,30,03,55,7.80
2013,01,30,03,56,7.80
2013,01,30,03,57,7.80
2013,01,30,03,58,7.80
2013,01,30,03,59,7.80
2013,01,30,04,00,7.80
2013,01,30,04,01,7.80
2013,01,30,04,02,7.80
2013,01,30,04,03,7.80
2013,01,30,04,04,7.80
2013,01,30,04,05,7.80
2013,01,30,04,06,7.80
2013,01,30,04,07,7.80
2013,01,30,04,08,7.80
2013,01,30,04,09,7.80
2013,01,30,04,10,7.80
2013,01,30,04,11,7.80
2013,01,30,04,12,7.80
2013,01,30,04,13,7.80
2013,01,30,04,14,7.80
2013,01,30,04,15,7.80
2013,01,30,04,16,7.80
2013,01,30,04,17,7.90
2013,01,30,04,18,7.80
2013,01,30,04,19,7.80
2013,01,30,04,20,7.90
2013,01,30,04,21,7.90
2013,01,30,04,22,7.90
2013,01,30,04,23,7.90
2013,01,30,04,24,7.90
2013,01,30,04,25,7.90
2013,01,30,04,26,7.90
2013,01,30,04,27,7.90
2013,01,30,04,28,7.90
2013,01,30,04,29,7.90
2013,01,30,04,30,7.90
2013,01,30,04,31,7.90
2013,01,30,04,32,7.90
2013,01,30,04,33,7.90
2013,01,30,04,34,7.90
2013,01,30,04,35,7.90
2013,01,30,04,36,7.90
2013,01,30,04,37,7.90
2013,01,30,04,38,7.90
2013,01,30,04,39,7.90
2013,01,30,04,40,7.90
2013,01,30,04,41,7.90
2013,01,30,04,42,7.90
2013,01,30,04,43,7.90
2013,01,30,04,44,7.90
2013,01,30,04,45,7.90
2013,01,30,04,46,7.90
2013,01,30,04,47,7.90
2013,01,30,04,48,7.90
2013,01,30,04,49,7.90
2013,01,30,04,50,7.90
2013,01,30,04,51,7.90
2013,01,30,04,52,7.90
2013,01,30,04,53,7.90
2013,01,30,04,54,7.90
2013,01,30,04,55,7.90
2013,01,30,04,56,7.90
2013,01,30,04,57,7.90
2013,01,30,04,58,7.90
2013,01,30,04,59,7.90
2013,01,30,05,00,7.90
2013,01,30,05,01,7.90
2013,01,30,05,02,7.90
2013,01,30,05,03,7.90
2013,01,30,05,04,7.90
2013,01,30,05,05,7.90
2013,01,30,05,06,7.90
2013,01,30,05,07,7.90
2013,01,30,05,08,7.90
2013,01,30,05,09,7.90
2013,01,30,05,10,7.90
2013,01,30,05,11,7.90
2013,01,30,05,12,7.90
2013,01,30,05,13,7.90
2013,01,30,05,14,7.90
2013,01,30,05,15,7.90
2013,01,30,05,16,7.90
2013,01,30,05,17,7.90
2013,01,30,05,18,7.90
2013,01,30,05,19,7.90
2013,01,30,05,20,7.90
2013,01,30,05,21,7.90
2013,01,30,05,22,7.90
2013,01,30,05,23,7.90
2013,01,30,05,24,7.90
2013,01,30,05,25,7.90
2013,01,30,05,26,7.90
2013,01,30,05,27,7.90
2013,01,30,05,28,7.90
2013,01,30,05,29,7.90
2013,01,30,05,30,7.90
2013,01,30,05,31,7.90
2013,01,30,05,32,7.90
2013,01,30,05,33,7.90
2013,01,30,05,34,7.90
2013,01,30,05,35,7.90
2013,01,30,05,36,7.90
2013,01,30,05,37,7.90
2013,01,30,05,38,7.90
2013,01,30,05,39,7.90
2013,01,30,05,40,7.90
2013,01,30,05,41,7.90
2013,01,30,05,42,7.90
2013,01,30,05,43,7.90
2013,01,30,05,44,7.90
2013,01,30,05,45,7.90
2013,01,30,05,46,7.90
2013,01,30,05,47,7.90
2013,01,30,05,48,7.90
2013,01,30,05,49,7.90
2013,01,30,05,50,7.80
2013,01,30,05,51,7.80
2013,01,30,05,52,7.80
2013,01,30,05,53,7.80
2013,01,30,05,54,7.80
2013,01,30,05,55,7.80
2013,01,30,05,56,7.80
2013,01,30,05,57,7.80
2013,01,30,05,58,7.80
2013,01,30,05,59,7.80
2013,01,30,06,00,7.80
2013,01,30,06,01,7.80
2013,01,30,06,02,7.80
2013,01,30,06,03,7.80
2013,01,30,06,04,7.80
2013,01,30,06,05,7.80
2013,01,30,06,06,7.80
2013,01,30,06,07,7.80
2013,01,30,06,08,7.80
2013,01,30,06,09,7.80
2013,01,30,06,10,7.80
2013,01,30,06,11,7.80
2013,01,30,06,12,7.80
2013,01,30,06,13,7.80
2013,01,30,06,14,7.80
2013,01,30,06,15,7.80
2013,01,30,06,16,7.80
2013,01,30,06,17,7.80
2013,01,30,06,18,7.80
2013,01,30,06,19,7.70
2013,01,30,06,20,7.70
2013,01,30,06,21,7.70
2013,01,30,06,22,7.70
2013,01,30,06,23,7.70
2013,01,30,06,24,7.70
2013,01,30,06,25,7.70
2013,01,30,06,26,7.70
2013,01,30,06,27,7.70
2013,01,30,06,28,7.70
2013,01,30,06,29,7.60
2013,01,30,06,30,7.60
2013,01,30,06,31,7.60
2013,01,30,06,32,7.60
2013,01,30,06,33,7.60
2013,01,30,06,34,7.60
2013,01,30,06,35,7.60
2013,01,30,06,36,7.60
2013,01,30,06,37,7.60
2013,01,30,06,38,7.60
2013,01,30,06,39,7.60
2013,01,30,06,40,7.60
2013,01,30,06,41,7.50
2013,01,30,06,42,7.50
2013,01,30,06,43,7.50
2013,01,30,06,44,7.50
2013,01,30,06,45,7.40
2013,01,30,06,46,7.40
2013,01,30,06,47,7.40
2013,01,30,06,48,7.40
2013,01,30,06,49,7.30
2013,01,30,06,50,7.30
2013,01,30,06,51,7.20
2013,01,30,06,52,7.20
2013,01,30,06,53,7.10
2013,01,30,06,54,7.10
2013,01,30,06,55,7.10
2013,01,30,06,56,7.00
2013,01,30,06,57,7.00
2013,01,30,06,58,7.00
2013,01,30,06,59,6.90
2013,01,30,07,00,6.90
2013,01,30,07,01,6.90
2013,01,30,07,02,6.90
2013,01,30,07,03,6.90
2013,01,30,07,04,6.90
2013,01,30,07,05,6.90
2013,01,30,07,06,6.90
2013,01,30,07,07,6.90
2013,01,30,07,08,6.90
2013,01,30,07,09,6.90
2013,01,30,07,10,6.90
2013,01,30,07,11,6.90
2013,01,30,07,12,6.90
2013,01,30,07,13,6.90
2013,01,30,07,14,6.90
2013,01,30,07,15,6.90
2013,01,30,07,16,6.90
2013,01,30,07,17,6.90
2013,01,30,07,18,6.90
2013,01,30,07,19,6.80
2013,01,30,07,20,6.80
2013,01,30,07,21,6.80
2013,01,30,07,22,6.70
2013,01,30,07,23,6.70
2013,01,30,07,24,6.60
2013,01,30,07,25,6.60
2013,01,30,07,26,6.50
2013,01,30,07,27,6.50
2013,01,30,07,28,6.50
2013,01,30,07,29,6.40
2013,01,30,07,30,6.40
2013,01,30,07,31,6.40
2013,01,30,07,32,6.40
2013,01,30,07,33,6.30
2013,01,30,07,34,6.30
2013,01,30,07,35,6.30
2013,01,30,07,36,6.30
2013,01,30,07,37,6.30
2013,01,30,07,38,6.20
2013,01,30,07,39,6.20
2013,01,30,07,40,6.20
2013,01,30,07,41,6.20
2013,01,30,07,42,6.20
2013,01,30,07,43,6.20
2013,01,30,07,44,6.10
2013,01,30,07,45,6.10
2013,01,30,07,46,6.10
2013,01,30,07,47,6.10
2013,01,30,07,48,6.10
2013,01,30,07,49,6.10
2013,01,30,07,50,6.10
2013,01,30,07,51,6.10
2013,01,30,07,52,6.10
2013,01,30,07,53,6.10
2013,01,30,07,54,6.10
2013,01,30,07,55,6.10
2013,01,30,07,56,6.10
2013,01,30,07,57,6.00
2013,01,30,07,58,6.00
2013,01,30,07,59,6.00
2013,01,30,08,00,6.10
2013,01,30,08,01,6.00
2013,01,30,08,02,6.10
2013,01,30,08,03,6.10
2013,01,30,08,04,6.10
2013,01,30,08,05,6.10
2013,01,30,08,06,6.10
2013,01,30,08,07,6.10
2013,01,30,08,08,6.10
2013,01,30,08,09,6.10
2013,01,30,08,10,6.10
2013,01,30,08,11,6.10
2013,01,30,08,12,6.10
2013,01,30,08,13,6.10
2013,01,30,08,14,6.10
2013,01,30,08,15,6.10
2013,01,30,08,16,6.20
2013,01,30,08,17,6.20
2013,01,30,08,18,6.20
2013,01,30,08,19,6.20
2013,01,30,08,20,6.20
2013,01,30,08,21,6.20
2013,01,30,08,22,6.20
2013,01,30,08,23,6.20
2013,01,30,08,24,6.20
2013,01,30,08,25,6.20
2013,01,30,08,26,6.20
2013,01,30,08,27,6.20
2013,01,30,08,28,6.20
2013,01,30,08,29,6.20
2013,01,30,08,30,6.20
2013,01,30,08,31,6.20
2013,01,30,08,32,6.20
2013,01,30,08,33,6.20
2013,01,30,08,34,6.20
2013,01,30,08,35,6.20
2013,01,30,08,36,6.20
2013,01,30,08,37,6.20
2013,01,30,08,38,6.20
2013,01,30,08,39,6.20
2013,01,30,08,40,6.20
2013,01,30,08,41,6.20
2013,01,30,08,42,6.20
2013,01,30,08,43,6.20
2013,01,30,08,44,6.30
2013,01,30,08,45,6.30
2013,01,30,08,46,6.30
2013,01,30,08,47,6.30
2013,01,30,08,48,6.30
2013,01,30,08,49,6.30
2013,01,30,08,50,6.30
2013,01,30,08,51,6.30
2013,01,30,08,52,6.30
2013,01,30,08,53,6.30
2013,01,30,08,54,6.30
2013,01,30,08,55,6.30
2013,01,30,08,56,6.30
2013,01,30,08,57,6.30
2013,01,30,08,58,6.30
2013,01,30,08,59,6.30
2013,01,30,09,00,6.30
2013,01,30,09,01,6.30
2013,01,30,09,02,6.30
2013,01,30,09,03,6.30
2013,01,30,09,04,6.30
2013,01,30,09,05,6.30
2013,01,30,09,06,6.30
2013,01,30,09,07,6.30
2013,01,30,09,08,6.30
2013,01,30,09,09,6.30
2013,01,30,09,10,6.30
2013,01,30,09,11,6.30
2013,01,30,09,12,6.30
2013,01,30,09,13,6.20
2013,01,30,09,14,6.20
2013,01,30,09,15,6.20
2013,01,30,09,16,6.20
2013,01,30,09,17,6.20
2013,01,30,09,18,6.20
2013,01,30,09,19,6.20
2013,01,30,09,20,6.20
2013,01,30,09,21,6.20
2013,01,30,09,22,6.20
2013,01,30,09,23,6.20
2013,01,30,09,24,6.20
2013,01,30,09,25,6.20
2013,01,30,09,26,6.20
2013,01,30,09,27,6.20
2013,01,30,09,28,6.20
2013,01,30,09,29,6.20
2013,01,30,09,30,6.20
2013,01,30,09,31,6.20
2013,01,30,09,32,6.20
2013,01,30,09,33,6.20
2013,01,30,09,34,6.20
2013,01,30,09,35,6.10
2013,01,30,09,36,6.10
2013,01,30,09,37,6.10
2013,01,30,09,38,6.10
2013,01,30,09,39,6.10
2013,01,30,09,40,6.10
2013,01,30,09,41,6.10
2013,01,30,09,42,6.10
2013,01,30,09,43,6.20
2013,01,30,09,44,6.20
2013,01,30,09,45,6.20
2013,01,30,09,46,6.20
2013,01,30,09,47,6.20
2013,01,30,09,48,6.20
2013,01,30,09,49,6.20
2013,01,30,09,50,6.20
2013,01,30,09,51,6.20
2013,01,30,09,52,6.20
2013,01,30,09,53,6.20
2013,01,30,09,54,6.20
2013,01,30,09,55,6.30
2013,01,30,09,56,6.30
2013,01,30,09,57,6.30
2013,01,30,09,58,6.30
2013,01,30,09,59,6.30
2013,01,30,10,00,6.30
2013,01,30,10,01,6.40
2013,01,30,10,02,6.40
2013,01,30,10,03,6.40
2013,01,30,10,04,6.40
2013,01,30,10,05,6.40
2013,01,30,10,06,6.40
2013,01,30,10,07,6.50
2013,01,30,10,08,6.50
2013,01,30,10,09,6.60
2013,01,30,10,10,6.50
2013,01,30,10,11,6.60
2013,01,30,10,12,6.60
2013,01,30,10,13,6.60
2013,01,30,10,14,6.70
2013,01,30,10,15,6.70
2013,01,30,10,16,6.70
2013,01,30,10,17,6.70
2013,01,30,10,18,6.80
2013,01,30,10,19,6.80
2013,01,30,10,20,6.80
2013,01,30,10,21,6.90
2013,01,30,10,22,6.90
2013,01,30,10,23,6.90
2013,01,30,10,24,6.90
2013,01,30,10,25,7.00
2013,01,30,10,26,7.00
2013,01,30,10,27,7.00
2013,01,30,10,28,7.00
2013,01,30,10,29,7.10
2013,01,30,10,30,7.10
2013,01,30,10,31,7.10
2013,01,30,10,32,7.10
2013,01,30,10,33,7.10
2013,01,30,10,34,7.10
2013,01,30,10,35,7.10
2013,01,30,10,36,7.10
2013,01,30,10,37,7.10
2013,01,30,10,38,7.20
2013,01,30,10,39,7.20
2013,01,30,10,40,7.20
2013,01,30,10,41,7.20
2013,01,30,10,42,7.30
2013,01,30,10,43,7.30
2013,01,30,10,44,7.30
2013,01,30,10,45,7.30
2013,01,30,10,46,7.30
2013,01,30,10,47,7.30
2013,01,30,10,48,7.30
2013,01,30,10,49,7.40
2013,01,30,10,50,7.40
2013,01,30,10,51,7.40
2013,01,30,10,52,7.40
2013,01,30,10,53,7.40
2013,01,30,10,54,7.30
2013,01,30,10,55,7.30
2013,01,30,10,56,7.30
2013,01,30,10,57,7.30
2013,01,30,10,58,7.30
2013,01,30,10,59,7.20
2013,01,30,11,00,7.20
2013,01,30,11,01,7.20
2013,01,30,11,02,7.20
2013,01,30,11,03,7.20
2013,01,30,11,04,7.20
2013,01,30,11,05,7.20
2013,01,30,11,06,7.20
2013,01,30,11,07,7.30
2013,01,30,11,08,7.30
2013,01,30,11,09,7.30
2013,01,30,11,10,7.30
2013,01,30,11,11,7.30
2013,01,30,11,12,7.30
2013,01,30,11,13,7.30
2013,01,30,11,14,7.30
2013,01,30,11,15,7.20
2013,01,30,11,16,7.20
2013,01,30,11,17,7.20
2013,01,30,11,18,7.20
2013,01,30,11,19,7.20
2013,01,30,11,20,7.20
2013,01,30,11,21,7.20
2013,01,30,11,22,7.30
2013,01,30,11,23,7.30
2013,01,30,11,24,7.30
2013,01,30,11,25,7.30
2013,01,30,11,26,7.30
2013,01,30,11,27,7.30
2013,01,30,11,28,7.30
2013,01,30,11,29,7.40
2013,01,30,11,30,7.30
2013,01,30,11,31,7.30
2013,01,30,11,32,7.30
2013,01,30,11,33,7.30
2013,01,30,11,34,7.20
2013,01,30,11,35,7.20
2013,01,30,11,36,7.20
2013,01,30,11,37,7.20
2013,01,30,11,38,7.20
2013,01,30,11,39,7.20
2013,01,30,11,40,7.30
2013,01,30,11,41,7.30
2013,01,30,11,42,7.30
2013,01,30,11,43,7.30
2013,01,30,11,44,7.30
2013,01,30,11,45,7.30
2013,01,30,11,46,7.30
2013,01,30,11,47,7.30
2013,01,30,11,48,7.30
2013,01,30,11,49,7.30
2013,01,30,11,50,7.30
2013,01,30,11,51,7.30
2013,01,30,11,52,7.30
2013,01,30,11,53,7.20
2013,01,30,11,54,7.20
2013,01,30,11,55,7.20
2013,01,30,11,56,7.20
2013,01,30,11,57,7.20
2013,01,30,11,58,7.20
2013,01,30,11,59,7.20
2013,01,30,12,00,7.20
2013,01,30,12,01,7.20
2013,01,30,12,02,7.20
2013,01,30,12,03,7.10
2013,01,30,12,04,7.10
2013,01,30,12,05,7.10
2013,01,30,12,06,7.10
2013,01,30,12,07,7.10
2013,01,30,12,08,7.10
2013,01,30,12,09,7.10
2013,01,30,12,10,7.10
2013,01,30,12,11,7.10
2013,01,30,12,12,7.10
2013,01,30,12,13,7.20
2013,01,30,12,14,7.20
2013,01,30,12,15,7.20
2013,01,30,12,16,7.20
2013,01,30,12,17,7.10
2013,01,30,12,18,7.10
2013,01,30,12,19,7.20
2013,01,30,12,20,7.20
2013,01,30,12,21,7.20
2013,01,30,12,22,7.20
2013,01,30,12,23,7.20
2013,01,30,12,24,7.20
2013,01,30,12,25,7.30
2013,01,30,12,26,7.30
2013,01,30,12,27,7.30
2013,01,30,12,28,7.30
2013,01,30,12,29,7.30
2013,01,30,12,30,7.30
2013,01,30,12,31,7.30
2013,01,30,12,32,7.30
2013,01,30,12,33,7.40
2013,01,30,12,34,7.40
2013,01,30,12,35,7.40
2013,01,30,12,36,7.50
2013,01,30,12,37,7.50
2013,01,30,12,38,7.50
2013,01,30,12,39,7.60
2013,01,30,12,40,7.60
2013,01,30,12,41,7.60
2013,01,30,12,42,7.60
2013,01,30,12,43,7.60
2013,01,30,12,44,7.60
2013,01,30,12,45,7.70
2013,01,30,12,46,7.70
2013,01,30,12,47,7.80
2013,01,30,12,48,7.80
2013,01,30,12,49,7.80
2013,01,30,12,50,7.90
2013,01,30,12,51,7.90
2013,01,30,12,52,7.90
2013,01,30,12,53,7.90
2013,01,30,12,54,7.90
2013,01,30,12,55,7.90
2013,01,30,12,56,8.00
2013,01,30,12,57,8.00
2013,01,30,12,58,8.00
2013,01,30,12,59,8.00
2013,01,30,13,00,8.00
2013,01,30,13,01,8.00
2013,01,30,13,02,8.00
2013,01,30,13,03,8.00
2013,01,30,13,04,8.00
2013,01,30,13,05,8.00
2013,01,30,13,06,8.00
2013,01,30,13,07,8.10
2013,01,30,13,08,8.10
2013,01,30,13,09,8.10
2013,01,30,13,10,8.20
2013,01,30,13,11,8.20
2013,01,30,13,12,8.20
2013,01,30,13,13,8.30
2013,01,30,13,14,8.30
2013,01,30,13,15,8.30
2013,01,30,13,16,8.40
2013,01,30,13,17,8.40
2013,01,30,13,18,8.40
2013,01,30,13,19,8.40
2013,01,30,13,20,8.50
2013,01,30,13,21,8.50
2013,01,30,13,22,8.50
2013,01,30,13,23,8.60
2013,01,30,13,24,8.60
2013,01,30,13,25,8.70
2013,01,30,13,26,8.70
2013,01,30,13,27,8.80
2013,01,30,13,28,8.80
2013,01,30,13,29,8.90
2013,01,30,13,30,8.90
2013,01,30,13,31,9.00
2013,01,30,13,32,9.10
2013,01,30,13,33,9.10
2013,01,30,13,34,9.20
2013,01,30,13,35,9.20
2013,01,30,13,36,9.30
2013,01,30,13,37,9.30
2013,01,30,13,38,9.40
2013,01,30,13,39,9.40
2013,01,30,13,40,9.50
2013,01,30,13,41,9.50
2013,01,30,13,42,9.50
2013,01,30,13,43,9.60
2013,01,30,13,44,9.60
2013,01,30,13,45,9.70
2013,01,30,13,46,9.70
2013,01,30,13,47,9.80
2013,01,30,13,48,9.80
2013,01,30,13,49,9.80
2013,01,30,13,50,9.80
2013,01,30,13,51,9.80
2013,01,30,13,52,9.80
2013,01,30,13,53,9.80
2013,01,30,13,54,9.80
2013,01,30,13,55,9.80
2013,01,30,13,56,9.80
2013,01,30,13,57,9.80
2013,01,30,13,58,9.80
2013,01,30,13,59,9.80
2013,01,30,14,00,9.80
2013,01,30,14,01,9.80
2013,01,30,14,02,9.80
2013,01,30,14,03,9.80
2013,01,30,14,04,9.80
2013,01,30,14,05,9.80
2013,01,30,14,06,9.90
2013,01,30,14,07,9.90
2013,01,30,14,08,9.90
2013,01,30,14,09,9.90
2013,01,30,14,10,9.90
2013,01,30,14,11,9.90
2013,01,30,14,12,9.90
2013,01,30,14,13,9.80
2013,01,30,14,14,9.70
2013,01,30,14,15,9.60
2013,01,30,14,16,9.50
2013,01,30,14,17,9.40
2013,01,30,14,18,9.30
2013,01,30,14,19,9.30
2013,01,30,14,20,9.20
2013,01,30,14,21,9.20
2013,01,30,14,22,9.10
2013,01,30,14,23,9.10
2013,01,30,14,24,9.10
2013,01,30,14,25,9.20
2013,01,30,14,26,9.20
2013,01,30,14,27,9.30
2013,01,30,14,28,9.40
2013,01,30,14,29,9.50
2013,01,30,14,30,9.60
2013,01,30,14,31,9.60
2013,01,30,14,32,9.70
2013,01,30,14,33,9.60
2013,01,30,14,34,9.60
2013,01,30,14,35,9.50
2013,01,30,14,36,9.50
2013,01,30,14,37,9.40
2013,01,30,14,38,9.30
2013,01,30,14,39,9.30
2013,01,30,14,40,9.20
2013,01,30,14,41,9.10
2013,01,30,14,42,9.00
2013,01,30,14,43,9.00
2013,01,30,14,44,8.90
2013,01,30,14,45,8.90
2013,01,30,14,46,8.80
2013,01,30,14,47,8.80
2013,01,30,14,48,8.80
2013,01,30,14,49,8.80
2013,01,30,14,50,8.60
2013,01,30,14,51,8.60
2013,01,30,14,52,8.50
2013,01,30,14,53,8.50
2013,01,30,14,54,8.50
2013,01,30,14,55,8.50
2013,01,30,14,56,8.50
2013,01,30,14,57,8.40
2013,01,30,14,58,8.50
2013,01,30,14,59,8.50
2013,01,30,15,00,8.50
2013,01,30,15,01,8.50
2013,01,30,15,02,8.50
2013,01,30,15,03,8.50
2013,01,30,15,04,8.50
2013,01,30,15,05,8.50
2013,01,30,15,06,8.50
2013,01,30,15,07,8.50
2013,01,30,15,08,8.40
2013,01,30,15,09,8.40
2013,01,30,15,10,8.40
2013,01,30,15,11,8.30
2013,01,30,15,12,8.30
2013,01,30,15,13,8.30
2013,01,30,15,14,8.30
2013,01,30,15,15,8.30
2013,01,30,15,16,8.30
2013,01,30,15,17,8.20
2013,01,30,15,18,8.20
2013,01,30,15,19,8.20
2013,01,30,15,20,8.10
2013,01,30,15,21,8.10
2013,01,30,15,22,8.00
2013,01,30,15,23,8.00
2013,01,30,15,24,7.90
2013,01,30,15,25,7.90
2013,01,30,15,26,7.80
2013,01,30,15,27,7.80
2013,01,30,15,28,7.70
2013,01,30,15,29,7.70
2013,01,30,15,30,7.70
2013,01,30,15,31,7.70
2013,01,30,15,32,7.70
2013,01,30,15,33,7.70
2013,01,30,15,34,7.70
2013,01,30,15,35,7.60
2013,01,30,15,36,7.60
2013,01,30,15,37,7.60
2013,01,30,15,38,7.60
2013,01,30,15,39,7.50
2013,01,30,15,40,7.50
2013,01,30,15,41,7.50
2013,01,30,15,42,7.50
2013,01,30,15,43,7.50
2013,01,30,15,44,7.50
2013,01,30,15,45,7.40
2013,01,30,15,46,7.40
2013,01,30,15,47,7.40
2013,01,30,15,48,7.40
2013,01,30,15,49,7.40
2013,01,30,15,50,7.40
2013,01,30,15,51,7.40
2013,01,30,15,52,7.30
2013,01,30,15,53,7.30
2013,01,30,15,54,7.30
2013,01,30,15,55,7.30
2013,01,30,15,56,7.30
2013,01,30,15,57,7.30
2013,01,30,15,58,7.30
2013,01,30,15,59,7.30
2013,01,30,16,00,7.30
2013,01,30,16,01,7.30
2013,01,30,16,02,7.30
2013,01,30,16,03,7.30
2013,01,30,16,04,7.30
2013,01,30,16,05,7.30
2013,01,30,16,06,7.30
2013,01,30,16,07,7.30
2013,01,30,16,08,7.30
2013,01,30,16,09,7.30
2013,01,30,16,10,7.30
2013,01,30,16,11,7.30
2013,01,30,16,12,7.30
2013,01,30,16,13,7.30
2013,01,30,16,14,7.30
2013,01,30,16,15,7.30
2013,01,30,16,16,7.30
2013,01,30,16,17,7.30
2013,01,30,16,18,7.30
2013,01,30,16,19,7.30
2013,01,30,16,20,7.30
2013,01,30,16,21,7.30
2013,01,30,16,22,7.20
2013,01,30,16,23,7.20
2013,01,30,16,24,7.20
2013,01,30,16,25,7.20
2013,01,30,16,26,7.20
2013,01,30,16,27,7.20
2013,01,30,16,28,7.20
2013,01,30,16,29,7.20
2013,01,30,16,30,7.20
2013,01,30,16,31,7.20
2013,01,30,16,32,7.20
2013,01,30,16,33,7.20
2013,01,30,16,34,7.20
2013,01,30,16,35,7.20
2013,01,30,16,36,7.20
2013,01,30,16,37,7.20
2013,01,30,16,38,7.20
2013,01,30,16,39,7.20
2013,01,30,16,40,7.20
2013,01,30,16,41,7.20
2013,01,30,16,42,7.20
2013,01,30,16,43,7.20
2013,01,30,16,44,7.20
2013,01,30,16,45,7.20
2013,01,30,16,46,7.20
2013,01,30,16,47,7.20
2013,01,30,16,48,7.20
2013,01,30,16,49,7.20
2013,01,30,16,50,7.20
2013,01,30,16,51,7.20
2013,01,30,16,52,7.20
2013,01,30,16,53,7.20
2013,01,30,16,54,7.20
2013,01,30,16,55,7.20
2013,01,30,16,56,7.20
2013,01,30,16,57,7.20
2013,01,30,16,58,7.20
2013,01,30,16,59,7.20
2013,01,30,17,00,7.20
2013,01,30,17,01,7.20
2013,01,30,17,02,7.20
2013,01,30,17,03,7.20
2013,01,30,17,04,7.20
2013,01,30,17,05,7.10
2013,01,30,17,06,7.10
2013,01,30,17,07,7.10
2013,01,30,17,08,7.10
2013,01,30,17,09,7.10
2013,01,30,17,10,7.10
2013,01,30,17,11,7.10
2013,01,30,17,12,7.10
2013,01,30,17,13,7.10
2013,01,30,17,14,7.10
2013,01,30,17,15,7.10
2013,01,30,17,16,7.10
2013,01,30,17,17,7.10
2013,01,30,17,18,7.10
2013,01,30,17,19,7.10
2013,01,30,17,20,7.10
2013,01,30,17,21,7.10
2013,01,30,17,22,7.10
2013,01,30,17,23,7.10
2013,01,30,17,24,7.10
2013,01,30,17,25,7.10
2013,01,30,17,26,7.10
2013,01,30,17,27,7.10
2013,01,30,17,28,7.10
2013,01,30,17,29,7.10
2013,01,30,17,30,7.10
2013,01,30,17,31,7.10
2013,01,30,17,32,7.10
2013,01,30,17,33,7.10
2013,01,30,17,34,7.10
2013,01,30,17,35,7.10
2013,01,30,17,36,7.10
2013,01,30,17,37,7.10
2013,01,30,17,38,7.10
2013,01,30,17,39,7.10
2013,01,30,17,40,7.10
2013,01,30,17,41,7.10
2013,01,30,17,42,7.10
2013,01,30,17,43,7.10
2013,01,30,17,44,7.10
2013,01,30,17,45,7.10
2013,01,30,17,46,7.10
2013,01,30,17,47,7.10
2013,01,30,17,48,7.10
2013,01,30,17,49,7.10
2013,01,30,17,50,7.10
2013,01,30,17,51,7.10
2013,01,30,17,52,7.10
2013,01,30,17,53,7.10
2013,01,30,17,54,7.10
2013,01,30,17,55,7.10
2013,01,30,17,56,7.10
2013,01,30,17,57,7.10
2013,01,30,17,58,7.10
2013,01,30,17,59,7.10
2013,01,30,18,00,7.10
2013,01,30,18,01,7.10
2013,01,30,18,02,7.10
2013,01,30,18,03,7.10
2013,01,30,18,04,7.10
2013,01,30,18,05,7.10
2013,01,30,18,06,7.10